Location: Brunsen
(51.8651°N, 9.8610°E)
Time: 10:58:31
(UTC+00:00)

MSX - Pass Details

Date: 23 May 2024
Orbit: 893 x 906 km, 99.0° (Epoch: 23 June)

Event Time Altitude Azimuth Distance (km) Brightness Sun altitude
Rises 02:02:00 0° 13° (NNE) 3,528 8.2 -9.1°
Reaches altitude 10° 02:04:27 10° 9° (N) 2,582 7.3 -8.8°
Maximum altitude 02:10:03 56° 293° (WNW) 1,062 4.1 -8.3°
Drops below altitude 10° 02:15:36 10° 217° (SW) 2,561 5.5 -7.7°
Enters shadow 02:15:47 - 217° (SW) 2,630 5.6 -7.7°
